Location: Minneapolis
(44.9800°N, 93.2640°W)
Time: 08:43:13
(UTC-05:00)

Iridium 96 - Visible Passes

Search period start: 16 April 2014 00:00
Search period end: 26 April 2014 00:00
Orbit: 776 x 779 km, 86.4° (Epoch: 15 April)

Date Brightness Start Highest point End Pass type
(mag) Time Alt. Az. Time Alt. Az. Time Alt. Az.
16 Apr 6.4 04:17:31 10° N 04:22:36 50° E 04:27:39 10° SSE visible
17 Apr 7.4 03:44:23 10° NNE 03:48:53 28° ENE 03:53:21 10° SE visible
17 Apr 6.1 05:24:54 10° NNW 05:29:40 37° W 05:34:25 10° SSW visible
18 Apr 8.1 03:11:45 10° NNE 03:15:02 17° ENE 03:18:19 10° ESE visible
18 Apr 5.5 04:51:06 10° N 04:56:17 66° W 05:01:26 10° S visible
19 Apr 5.7 04:17:32 10° N 04:22:46 71° E 04:27:58 10° S visible
20 Apr 6.7 03:44:14 10° N 03:49:08 40° E 03:54:01 10° SSE visible
20 Apr 6.6 05:25:21 10° NNW 05:29:39 26° W 05:33:55 10° SW visible
21 Apr 7.6 03:11:15 10° NNE 03:15:22 23° ENE 03:19:28 10° SE visible
21 Apr 5.8 04:51:21 10° NNW 04:56:20 46° W 05:00:43 13° SSW visible
22 Apr 8.2 02:38:59 10° NE 02:41:28 13° ENE 02:43:55 10° E visible
22 Apr 5.4 04:17:39 10° N 04:22:54 83° W 04:26:51 18° S visible
23 Apr 6.1 03:44:11 10° N 03:49:20 56° E 03:53:02 19° SSE visible
23 Apr 7.0 05:25:59 10° NW 05:29:34 19° WNW 05:33:09 10° WSW visible
24 Apr 7.1 03:10:59 10° NNE 03:15:39 32° ENE 03:19:14 15° SE visible
24 Apr 6.3 04:51:42 10° NNW 04:56:20 33° W 04:59:41 17° SW visible
25 Apr 7.8 02:38:12 10° NNE 02:41:49 19° ENE 02:45:25 10° ESE visible
25 Apr 5.6 04:17:50 10° N 04:22:58 58° W 04:25:56 25° SSW visible
